BANGABANDHUSAT-1

Last updated on Sat Aug 15 2026 00:03:01 GMT+0000 (Coordinated Universal Time)

1 43463U 18044A 26226.58243904 -.00000378 00000+0 00000+0 0 9997 2 43463 0.0232 109.0636 0002238 49.1213 133.5527 1.00268567 30294
UTC large
Height (km)
Speed (km/s)
/
Latitude / Longitude
Inclination (degrees)
Orbital Period (minutes)
Azimuth
Elevation
Range (km)
Doppler Factor

Next 0 passes for location: London (51.5072 / 0.1276)

No passes found over London.
BANGABANDHUSAT-1